Location: Unspecified
(0.0000°N, 0.0000°E)
Time: 03:15:11
(UTC+01:00)

Centaur D-1AR AC-41 - Visible Passes

Search period start: 20 December 2014 00:00
Search period end: 30 December 2014 00:00
Orbit: 626 x 36216 km, 21.2° (Epoch: 18 December)

Date Brightness Start Highest point End Pass type
(mag) Time Alt. Az. Time Alt. Az. Time Alt. Az.
20 Dec 8.3 00:00:00 53° SE 23:59:30 53° SE 00:40:42 10° ESE visible
20 Dec 9.2 15:58:30 10° ESE 20:05:00 31° ESE 21:47:34 10° ESE visible
21 Dec 10.3 21:09:56 10° W 22:36:04 31° WSW 02:23:42 10° WSW visible
22 Dec 4.6 06:36:19 10° WSW 06:57:16 49° NNW 07:01:59 10° NE visible
22 Dec 6.3 18:19:43 10° WNW 04:21:40 76° SSE 04:31:47 10° ENE visible
23 Dec 7.7 15:44:53 10° WNW 16:07:18 79° NNE 01:58:41 10° E visible
24 Dec 6.3 13:14:16 10° NW 21:17:16 50° SE 23:17:49 10° ESE visible
25 Dec 9.7 17:01:48 10° ESE 18:50:03 16° ESE 19:57:55 10° ESE visible
26 Dec 5.1 19:40:50 10° W 05:39:03 75° NNW 05:45:18 10° ENE visible
27 Dec 7.3 17:00:00 10° WNW 17:48:40 83° SW 03:14:14 10° E visible
28 Dec 7.0 14:27:27 10° NW 14:41:49 66° NNE 00:38:55 10° E visible
29 Dec 5.9 11:57:49 10° NNW 20:02:49 36° ESE 12:29:57 10° E visible
